RH
53 52 51 50 49 48 46 45 44 45 45 44 44 42 40 38 36 35 34 34 34 34 35 36 36 36 33 31 28 26 25 23 19 17 16 15 13 12 12 11 11 10 11 11 10 10 10 13 16 16 18 24 26 25 25 25 23 24 28 30 29 30 32 32 33 31 25 25 27 29 32 34 35 38 42 45 47 53 61 71 82 90 95 97 95
52 51 52 54 53 50 46 42 41 42 42 43 43 41 39 38 36 36 35 35 35 36 37 37 36 33 30 28 27 25 23 20 17 15 14 13 11 10 10 9 10 10 10 10 11 12 12 15 18 17 20 26 28 26 25 24 22 22 24 27 26 27 30 30 31 31 25 20 20 23 25 28 31 34 38 40 41 48 55 61 72 82 90 96 96
53 55 58 57 53 50 48 45 42 41 42 43 43 42 40 38 37 36 36 36 37 38 38 36 33 31 29 27 26 24 21 18 15 13 12 10 10 10 10 11 11 12 12 12 13 15 18 22 25 25 26 29 28 27 24 22 22 23 24 27 26 25 28 29 29 31 29 21 17 19 20 22 26 29 33 36 38 42 49 55 63 73 83 92 96
57 61 60 56 51 48 48 47 43 42 44 45 44 42 40 39 38 38 38 39 39 38 36 34 31 29 28 27 25 22 18 15 13 12 11 11 11 12 12 12 13 14 14 15 16 18 22 27 29 29 30 30 28 27 24 21 22 25 25 26 25 24 26 29 29 29 30 26 20 18 17 17 19 23 27 32 35 39 43 49 57 65 75 85 94
60 62 58 52 50 48 48 48 47 46 47 47 44 43 41 40 40 40 40 40 38 37 34 32 30 29 28 26 22 18 15 13 12 12 12 13 13 13 13 14 15 16 17 19 21 21 24 27 28 29 28 26 25 24 23 22 23 24 24 25 24 23 24 25 27 28 30 29 24 19 19 18 18 20 22 26 31 35 38 44 51 58 68 78 87
59 58 55 52 51 49 47 49 51 51 50 47 45 44 43 42 42 41 41 39 37 35 33 31 31 29 27 23 17 15 13 12 12 13 13 14 14 14 15 16 17 19 20 22 24 24 25 26 27 28 26 22 22 22 22 22 22 21 23 24 24 24 24 23 25 27 28 28 27 24 24 24 23 22 21 23 28 31 35 43 48 51 60 70 78
56 55 54 54 52 49 48 50 52 52 50 48 47 46 44 43 42 41 40 38 36 35 33 32 30 27 22 17 14 14 13 13 14 14 14 14 13 14 16 17 17 20 22 24 27 27 27 26 26 26 24 21 21 22 22 22 21 21 22 23 23 23 24 24 25 27 27 27 27 26 26 26 27 25 24 25 28 29 33 41 44 47 54 62 69
55 55 55 54 51 51 52 53 52 52 50 49 48 46 44 43 42 41 39 38 37 35 34 31 27 22 18 15 15 15 14 14 14 13 13 13 12 14 17 16 16 20 23 26 27 26 25 26 26 25 22 22 22 22 22 22 22 22 21 22 23 24 24 25 25 26 27 27 27 27 26 26 26 26 26 26 27 29 35 39 42 49 56 58 63
57 56 55 54 52 53 56 56 54 53 51 49 46 44 43 43 41 40 39 38 37 35 32 27 21 17 16 16 16 15 15 15 14 13 12 11 10 12 15 16 19 23 25 26 26 25 25 25 26 25 23 23 25 24 24 24 23 22 21 20 22 22 23 24 25 26 27 27 27 27 27 27 26 26 26 26 26 27 31 35 39 49 56 57 59
61 59 57 56 55 56 57 57 56 53 50 47 45 44 44 42 41 41 40 38 35 31 25 21 18 17 17 17 16 16 15 14 13 12 11 10 9 9 13 18 24 26 25 25 26 26 27 26 25 26 26 26 26 27 26 24 22 21 21 21 21 22 24 25 26 27 27 27 27 27 27 27 27 27 27 26 26 25 28 32 37 44 52 56 56
66 63 61 60 60 59 57 56 55 51 49 47 45 45 43 42 42 40 38 34 29 24 20 18 18 18 18 18 17 16 14 12 11 10 9 9 8 8 13 21 25 26 25 25 26 26 26 26 25 26 27 26 27 28 26 23 20 19 20 20 22 25 28 28 27 27 27 27 27 27 27 27 27 27 27 27 27 26 27 31 34 39 47 55 57
67 66 65 63 60 60 60 59 56 52 50 48 46 44 43 42 40 37 32 27 23 20 19 19 20 19 18 18 16 14 12 10 10 8 8 8 7 9 17 24 25 26 25 25 25 26 26 26 25 26 27 27 28 28 25 21 19 19 20 21 25 29 31 32 31 30 29 29 28 27 27 27 26 27 27 27 27 27 28 29 31 36 41 50 59
66 65 65 62 60 61 64 63 56 50 48 46 44 43 40 38 35 30 26 23 21 21 21 20 20 19 17 16 13 11 9 8 8 7 8 8 7 10 21 26 26 25 25 24 25 26 27 27 27 27 26 26 28 27 23 21 20 20 22 26 30 32 34 35 36 35 34 34 33 31 30 30 28 26 27 27 26 27 28 27 29 33 36 43 54
61 61 63 62 60 59 58 56 51 46 45 43 41 38 35 32 29 25 23 22 21 21 20 20 19 17 15 13 11 9 7 7 7 7 8 8 7 14 24 27 26 25 24 24 23 24 26 27 27 26 25 26 27 24 23 22 22 24 28 32 34 35 37 38 38 38 39 39 39 38 38 37 34 29 27 27 27 27 27 27 27 30 33 38 44
59 62 64 62 58 54 51 49 47 43 40 38 35 33 31 28 25 23 21 21 21 21 21 20 17 14 12 9 9 8 7 7 8 7 9 9 10 18 26 26 25 25 24 23 22 22 24 26 26 25 25 27 26 24 25 25 26 30 34 35 36 38 40 41 41 41 40 40 41 42 42 43 41 36 30 27 27 27 27 27 27 27 30 34 36
64 65 63 58 53 50 48 46 43 39 37 35 33 30 27 25 22 21 20 21 22 22 20 17 14 12 10 8 9 10 9 9 10 10 10 11 13 21 26 25 25 25 23 22 21 21 23 25 26 26 26 26 25 24 27 28 30 34 37 37 39 41 42 43 44 43 43 43 43 43 43 43 43 41 36 29 27 27 27 27 28 26 27 31 31
66 62 57 53 50 47 45 42 39 38 37 35 30 26 23 21 20 21 22 23 23 20 17 14 11 10 8 7 10 13 12 11 12 12 12 12 15 22 26 25 25 24 22 22 21 21 23 24 25 25 25 24 25 25 28 30 32 36 39 40 43 45 46 47 47 49 51 51 50 48 45 42 41 41 39 34 29 28 27 26 27 27 27 28 28
62 56 51 49 47 44 42 40 39 38 36 32 27 23 21 21 22 24 25 23 21 17 14 12 10 9 8 8 10 14 15 14 12 14 15 14 16 23 27 25 25 23 21 21 21 22 24 24 24 24 24 24 26 28 30 33 36 40 44 46 49 52 54 54 53 55 57 57 56 54 51 48 44 42 40 37 32 30 28 27 26 27 27 27 27
54 50 48 46 45 43 42 40 38 37 33 28 24 22 23 24 26 29 28 25 20 16 13 11 10 9 9 9 10 13 15 15 14 14 16 16 17 24 27 25 25 25 22 21 22 23 26 27 25 23 24 25 27 30 33 37 42 48 54 57 59 60 61 62 62 62 60 58 57 56 56 56 53 48 43 39 35 31 29 27 27 27 27 26 27
48 47 45 44 43 42 40 37 35 33 28 24 23 26 28 28 28 28 27 23 19 14 12 12 12 11 11 11 12 13 14 16 16 16 18 19 18 22 26 24 25 26 23 21 23 24 26 28 26 23 24 26 28 32 37 42 49 56 63 67 69 69 70 72 74 75 73 71 67 62 60 62 61 55 48 42 38 34 30 29 28 26 27 27 27
46 45 44 43 43 40 37 33 31 29 27 26 27 29 30 28 27 26 24 18 14 12 13 16 17 16 15 15 15 15 14 16 18 18 20 20 19 21 23 22 23 26 25 22 24 26 27 28 25 22 23 26 29 34 39 45 54 61 67 72 78 82 83 82 82 85 87 85 81 75 69 67 66 62 54 46 42 38 34 32 29 27 27 27 26
45 44 44 44 42 38 33 28 28 29 30 33 32 30 28 25 23 22 20 17 15 14 15 19 21 21 21 21 20 19 19 18 18 19 21 21 20 20 21 20 21 25 26 24 26 28 28 26 23 21 23 25 29 35 42 48 55 62 69 76 83 87 89 88 87 89 91 91 88 83 75 69 68 65 57 51 47 43 37 33 29 27 27 26 25
45 44 45 43 40 34 28 26 27 30 34 38 37 32 28 25 21 19 19 20 21 20 20 22 23 22 23 24 23 24 24 22 19 19 19 20 20 20 21 21 20 22 26 26 26 27 26 22 20 20 22 25 29 36 44 49 54 62 72 78 81 83 86 90 92 93 94 95 94 90 83 77 71 64 57 54 51 48 43 38 32 27 27 27 24
45 45 45 41 36 32 29 30 33 35 36 38 36 31 28 26 24 21 21 23 23 23 23 23 23 23 23 24 24 25 28 27 23 19 18 19 20 20 21 21 19 20 24 25 23 23 22 20 20 21 22 26 30 37 44 48 53 64 74 80 81 84 87 91 93 94 96 97 97 97 97 89 71 57 54 58 59 57 52 46 37 28 27 29 29
46 46 43 39 35 33 33 36 39 39 37 36 33 29 26 25 24 23 23 24 23 23 23 23 23 23 23 24 25 26 28 29 25 20 18 20 21 21 21 21 19 20 22 23 19 18 20 20 21 23 25 27 31 38 43 47 52 62 75 82 84 88 91 92 93 94 97 98 98 99 101 95 79 67 65 67 67 64 58 51 43 37 35 36 36
47 44 40 36 34 34 37 40 40 38 36 32 29 26 24 24 23 23 24 24 24 24 24 23 23 23 23 24 27 27 28 28 24 19 19 20 22 24 24 21 20 21 22 21 19 18 21 22 23 26 28 28 31 36 41 45 50 59 72 81 83 87 91 94 95 96 97 99 99 98 99 97 93 91 90 86 80 71 62 56 51 48 47 45 44
46 42 38 35 35 37 39 40 38 35 32 29 25 23 22 22 23 24 24 25 25 25 25 25 24 24 24 25 26 27 28 27 22 18 18 20 21 24 25 22 20 22 23 21 18 20 26 27 26 27 29 29 30 33 37 42 47 56 69 77 78 83 91 94 95 98 99 99 99 99 99 98 96 96 97 98 94 81 66 60 56 53 52 52 52
44 40 36 34 37 40 40 38 34 31 28 25 23 23 22 22 23 23 23 25 26 26 27 27 26 25 26 25 24 26 27 25 20 18 18 19 19 21 22 21 21 22 23 21 19 23 28 29 27 27 28 28 28 30 34 39 44 54 69 75 74 78 87 92 94 97 99 99 99 99 99 99 98 96 93 94 97 88 73 65 62 57 55 56 56
42 38 36 36 39 41 39 34 30 28 25 23 23 23 22 22 25 25 22 20 21 22 24 26 24 24 26 25 21 22 24 22 19 18 18 19 19 19 20 21 21 22 22 20 20 26 30 29 28 28 27 27 27 28 31 36 40 49 61 67 66 71 80 87 91 96 98 99 99 99 99 99 99 98 94 93 96 89 75 68 67 65 64 63 62
41 37 37 39 41 40 36 31 27 25 23 22 23 22 20 19 22 24 22 18 17 17 20 21 20 20 23 23 19 19 20 20 19 19 19 19 20 20 20 21 21 21 20 20 24 29 30 28 28 28 28 28 28 27 30 34 37 42 51 56 57 63 72 81 89 94 97 98 99 99 100 99 98 97 96 97 99 94 80 71 69 71 74 74 71
39 38 40 41 40 36 32 27 24 22 22 22 22 22 22 19 19 20 19 19 19 19 19 20 20 18 19 20 19 19 20 20 20 20 20 20 20 20 20 21 20 19 20 23 28 30 29 27 27 27 28 29 29 28 30 33 35 38 45 50 52 56 65 75 83 90 94 97 99 99 100 100 99 98 94 94 98 99 94 83 74 71 75 78 77
39 40 41 40 36 32 28 24 22 21 22 22 22 23 24 23 21 21 20 19 20 21 20 21 21 19 19 19 20 20 20 20 21 21 21 21 21 20 21 21 19 20 23 28 31 31 29 27 26 26 27 29 29 28 29 32 34 36 40 45 48 52 58 66 75 84 90 94 98 100 100 100 101 100 96 93 93 96 99 96 87 77 73 74 74
41 42 40 36 32 28 25 23 21 21 22 22 22 23 23 23 24 24 24 23 24 24 23 21 20 20 20 20 20 22 21 21 21 22 22 22 21 21 21 20 20 23 27 32 33 32 30 28 27 27 28 29 28 28 28 29 31 34 37 42 44 47 52 57 65 75 84 89 94 98 99 100 100 100 100 98 96 95 95 96 94 87 79 74 73
42 41 37 32 28 24 22 22 21 21 22 22 23 23 23 23 25 26 28 28 29 29 28 25 22 21 22 21 21 22 22 22 23 23 23 23 22 21 21 22 25 29 32 33 34 33 33 31 30 30 29 28 28 27 27 27 28 30 34 38 39 41 46 50 54 62 73 81 88 93 97 98 99 100 100 99 98 97 95 94 93 91 86 81 79
41 37 32 29 25 21 21 21 21 22 23 23 23 23 24 25 26 27 28 29 29 30 31 30 26 23 22 22 23 23 24 24 24 24 24 24 22 22 24 27 30 33 34 33 34 35 35 33 32 31 30 29 28 27 26 26 26 27 31 36 37 37 40 42 45 51 61 69 77 85 91 95 97 98 100 99 97 95 95 95 95 93 89 87 86
37 33 28 24 22 20 20 21 22 22 23 23 23 24 25 26 28 29 29 29 29 28 30 31 30 27 26 25 24 23 25 26 25 25 25 24 23 25 30 32 32 34 35 34 35 36 36 35 34 33 31 30 29 28 26 26 25 25 28 33 35 36 37 37 38 43 51 59 65 73 81 88 92 94 97 100 99 96 95 96 97 94 92 92 92
33 29 25 22 21 21 21 21 23 23 24 24 25 25 26 27 28 29 29 29 29 28 29 30 31 32 32 31 27 24 25 27 27 27 26 25 26 31 35 35 34 35 35 35 35 37 38 37 36 35 33 31 30 29 28 26 24 23 23 27 32 34 36 35 34 36 43 51 56 62 69 77 84 90 94 97 99 98 97 97 97 95 93 93 93
31 27 23 21 21 22 22 22 23 23 24 25 25 26 27 28 28 29 29 29 29 29 29 29 30 31 32 34 31 28 28 31 33 34 33 32 33 36 38 38 36 35 35 36 36 38 39 39 37 37 35 33 32 31 30 28 25 21 19 22 26 30 32 33 31 31 35 42 48 53 58 63 71 81 88 92 95 98 98 98 97 96 95 94 93
28 25 22 21 22 22 22 23 24 23 24 25 25 26 28 28 28 28 28 28 29 30 29 29 29 29 30 32 32 32 33 35 37 38 37 37 38 39 40 39 38 36 36 36 37 37 39 40 39 38 38 37 35 33 31 29 27 24 20 18 20 24 28 30 30 29 31 35 39 45 50 54 59 67 75 83 90 94 97 99 99 98 98 97 96
26 23 21 20 21 22 23 24 24 24 24 25 26 27 28 28 28 28 28 28 29 30 30 29 29 30 31 31 30 31 33 35 36 38 38 39 40 41 41 41 40 38 37 38 37 37 38 40 41 40 40 40 39 37 34 31 28 27 23 20 18 19 22 26 28 28 29 31 33 37 42 47 51 55 61 69 77 84 90 96 100 100 99 99 98
23 21 19 18 20 23 23 24 25 26 26 26 27 27 28 28 29 29 29 29 29 30 30 30 30 31 31 28 25 25 28 33 37 37 38 40 41 42 42 43 42 41 39 39 39 37 36 38 40 42 42 42 41 40 37 34 31 29 27 23 21 19 19 20 24 26 27 28 29 32 36 39 44 49 53 57 64 71 77 84 92 97 99 100 99
21 20 20 19 20 23 23 23 24 25 26 26 27 28 28 29 28 28 28 28 29 29 30 29 31 32 31 28 25 25 26 31 36 37 37 39 41 41 42 44 45 43 41 40 40 38 36 36 38 40 42 43 43 43 41 38 35 33 30 25 23 22 20 19 20 22 25 26 28 30 33 34 37 42 46 50 55 60 65 70 77 84 90 93 96
20 21 21 21 21 22 23 23 24 25 25 26 27 27 27 27 27 27 27 27 27 28 29 29 30 31 31 30 28 27 27 32 36 37 37 38 39 40 42 45 46 44 43 43 42 40 37 36 37 37 39 42 44 45 44 41 39 38 36 30 26 24 22 21 20 19 21 24 27 30 32 33 34 36 40 43 47 53 58 62 65 69 75 81 85
20 20 21 22 22 23 23 23 24 25 25 25 25 25 25 25 25 25 26 26 27 27 28 28 29 30 31 31 31 31 32 35 37 37 37 37 38 39 41 44 44 44 43 44 44 41 38 37 37 36 36 38 42 45 46 44 42 42 41 38 32 27 23 22 22 20 19 21 26 29 31 32 33 34 36 38 40 44 49 55 58 59 63 69 73
21 21 21 22 22 23 23 24 24 25 25 25 25 25 24 24 24 24 24 25 26 26 27 28 29 29 30 32 33 34 35 36 37 36 36 37 38 39 40 42 44 44 43 44 44 41 38 38 38 37 37 37 39 42 46 46 45 44 44 43 39 33 27 23 23 22 20 19 22 27 29 30 31 31 33 36 38 39 41 47 51 53 56 60 64
22 23 23 23 23 23 23 24 25 25 25 25 25 25 24 24 24 24 24 24 25 25 26 27 28 29 30 31 32 33 34 35 36 37 37 37 37 38 39 41 42 42 42 43 42 41 39 39 38 38 38 37 37 40 44 47 46 46 45 45 43 39 33 27 24 24 24 21 20 22 25 28 29 29 29 32 36 37 38 40 43 46 49 52 56
23 24 24 24 24 23 23 24 25 25 25 25 25 25 24 24 24 24 24 24 24 25 26 27 27 28 29 30 31 32 34 35 35 36 37 37 37 37 38 38 38 38 39 41 41 41 41 41 40 39 39 39 38 39 42 46 47 47 47 46 44 41 38 34 28 26 26 24 22 21 22 24 27 27 26 28 31 34 36 37 39 40 43 45 48
23 24 24 24 24 24 24 24 25 25 25 25 25 25 25 24 24 24 24 24 24 25 25 26 27 27 28 29 30 32 33 35 35 36 36 37 37 38 38 37 36 36 38 40 40 41 42 42 42 41 40 40 40 40 41 45 47 48 48 47 44 42 40 38 35 31 28 27 26 25 23 22 23 25 26 27 28 30 32 35 36 37 39 40 42
22 23 23 24 24 24 24 24 24 24 24 24 24 24 25 24 24 24 24 24 24 24 25 25 26 27 28 29 30 31 32 34 36 36 36 36 37 39 39 38 36 36 38 40 41 42 42 43 43 43 42 42 42 42 41 43 46 48 49 47 44 42 41 41 39 37 34 30 29 28 27 24 23 23 24 26 27 29 30 32 34 35 36 37 39
20 21 21 22 22 23 22 22 22 22 22 22 23 23 24 24 24 24 24 23 23 24 24 24 25 26 26 27 29 30 32 33 35 36 37 36 37 38 39 38 36 36 38 40 41 42 43 44 44 45 45 44 44 44 43 44 46 47 47 46 44 44 43 42 41 40 39 36 33 32 30 28 26 24 23 23 25 28 29 31 32 34 35 35 36
20 20 20 20 21 21 21 21 21 21 21 22 22 22 23 23 23 23 23 23 23 24 24 24 25 25 26 27 28 30 31 33 34 35 36 37 37 38 39 37 35 35 37 40 41 43 44 45 46 46 46 46 46 47 47 48 48 46 45 45 45 45 45 44 43 42 41 40 38 36 34 32 31 29 27 25 24 25 27 29 32 34 34 34 34